Location: Katzenstein
(51.7484°N, 10.2155°E)
Time: 00:22:39
(UTC+00:00)

Cosmos 1842 Rocket - Pass Details

Date: 17 February 2020
Orbit: 604 x 635 km, 82.5° (Epoch: 04 April)

Event Time Altitude Azimuth Distance (km) Brightness Sun altitude
Rises 05:22:03 0° 218° (SW) 2,913 6.7 -11.2°
Reaches altitude 10° 05:24:31 10° 230° (SW) 2,014 5.8 -10.9°
Maximum altitude 05:28:26 29° 291° (WNW) 1,159 4.4 -10.3°
Drops below altitude 10° 05:32:24 10° 353° (N) 2,034 6.1 -9.6°
Sets 05:34:55 0° 4° (N) 2,948 7.0 -9.3°
